Wind_Speed
10 11 9 12 12 13 11 10 9 9 9 11 9 7 6 7 6 5 6 4 5 5 4 5 4 5 5 7 8 9 10 10 11 11 11 13 13 14 13 12 11 10 8
7 10 7 9 10 11 10 9 7 7 8 8 6 4 6 8 8 6 6 7 3 4 5 3 3 6 6 7 6 8 9 9 10 11 9 10 12 14 14 13 11 10 9
8 6 8 7 8 10 10 9 9 8 7 7 5 5 7 8 7 5 6 8 5 1 3 2 1 5 6 4 3 3 7 7 8 8 9 10 9 13 15 13 12 9 10
7 6 7 8 8 7 8 9 9 8 8 7 6 6 6 6 7 6 5 6 5 3 3 3 0 3 3 4 2 2 2 3 4 6 7 7 9 12 13 13 13 10 10
5 5 6 6 4 5 6 9 8 8 7 7 5 4 4 8 8 6 5 6 4 3 5 4 2 2 0 1 4 2 3 2 4 4 6 6 8 11 11 11 13 9 9
3 2 5 4 3 2 4 8 9 9 9 7 5 4 4 7 10 10 8 7 4 7 8 7 4 1 1 3 5 3 2 4 6 5 6 6 8 8 10 10 11 9 8
2 1 3 4 2 2 3 6 9 8 8 6 5 4 6 9 9 8 8 7 6 7 10 8 7 4 3 3 5 3 5 4 5 8 9 5 7 8 8 9 9 11 6
3 0 1 3 4 1 2 6 8 8 7 3 4 6 8 9 9 8 8 8 7 8 9 8 9 5 3 4 2 2 4 4 3 6 10 8 7 9 10 8 7 10 7
2 3 1 4 5 3 2 6 7 9 8 2 4 7 8 10 10 9 8 6 8 9 9 7 8 5 6 4 1 2 4 6 10 6 9 9 8 9 10 9 7 7 7
2 5 3 5 4 3 2 5 6 9 6 5 6 9 10 8 10 10 8 7 9 9 9 6 5 7 8 3 4 3 5 5 5 2 5 5 5 8 9 9 6 5 6
3 4 5 5 4 5 3 2 5 6 4 4 3 5 9 7 6 5 8 7 7 9 7 5 5 6 6 3 2 2 5 4 5 4 7 6 5 4 7 6 6 5 4
3 5 6 6 5 6 6 3 2 3 3 3 1 5 12 8 6 5 4 5 6 7 5 6 5 4 4 3 2 2 2 3 6 3 1 4 4 4 4 4 4 5 4
4 3 4 6 5 6 9 5 1 1 2 2 2 3 8 7 7 8 4 4 5 3 4 4 4 3 4 3 4 1 2 2 1 4 2 4 4 3 4 5 5 3 3
5 4 4 7 7 7 11 8 3 0 1 2 1 1 4 6 6 7 5 6 6 3 2 3 3 2 2 5 1 2 1 2 2 1 3 4 5 4 3 4 5 4 4
6 4 4 6 9 9 13 10 5 3 1 2 3 2 2 4 6 6 8 5 7 3 2 2 3 2 1 2 4 3 3 2 3 3 2 3 4 6 6 5 5 4 4
8 6 8 7 12 11 11 12 9 6 3 3 3 2 1 2 4 5 5 5 10 7 2 1 2 2 1 2 3 3 3 5 6 4 3 2 3 5 6 7 6 6 6
13 13 13 10 13 11 10 11 11 8 6 3 3 3 1 1 2 4 5 6 9 11 3 5 3 1 1 1 1 3 3 4 5 5 4 4 4 5 6 6 6 6 6
12 16 16 13 12 14 12 13 13 12 10 6 3 2 1 0 1 3 3 4 4 5 8 3 2 2 1 1 1 2 2 4 4 5 6 4 4 5 5 5 6 6 7
15 15 17 15 13 15 15 16 14 13 12 9 6 4 3 2 3 4 1 4 2 3 4 3 3 2 1 2 2 0 2 4 5 5 6 6 6 5 4 5 7 8 8
13 14 14 18 16 17 15 16 15 14 13 12 8 8 6 5 5 7 4 1 3 1 3 4 2 5 2 1 2 1 1 4 6 6 6 5 5 6 5 6 8 10 10
11 12 15 16 17 17 18 15 14 15 13 15 12 12 11 9 8 8 8 4 4 3 3 4 2 3 4 4 2 3 6 5 5 5 6 6 8 6 6 7 8 10 8
10 14 16 19 16 18 19 18 18 17 16 16 15 15 15 12 12 11 12 9 8 6 5 5 5 2 3 4 4 5 7 7 8 7 8 8 6 8 9 9 9 10 8
14 16 18 21 20 19 22 21 20 18 19 17 15 14 14 15 16 14 15 14 13 11 9 7 6 4 4 4 4 6 5 6 9 10 9 10 9 8 11 11 12 11 11
16 16 19 23 23 24 24 23 23 21 18 15 16 17 17 18 18 21 17 19 17 13 11 9 8 5 6 5 6 9 10 7 8 12 10 10 12 12 13 13 11 11 12
15 19 26 28 31 33 29 25 25 22 19 17 19 20 16 16 15 19 19 21 19 15 13 11 9 8 8 6 8 11 12 10 9 6 11 11 13 10 12 15 12 13 16
13 18 26 20 32 34 33 29 27 24 20 21 21 18 16 15 18 20 20 22 21 18 15 13 12 11 9 9 9 11 10 10 10 8 9 11 9 10 8 8 12 17 19
Wind_Direction
92 92 88 94 100 94 79 73 65 62 74 75 70 56 48 42 36 41 34 39 90 66 36 41 76 117 124 111 111 112 115 108 112 117 119 121 122 124 125 124 117 107 106
82 108 98 93 88 82 78 76 91 78 76 80 76 54 35 35 33 29 26 34 74 60 40 61 119 131 132 111 104 116 118 117 120 115 118 123 119 119 118 116 111 106 110
89 118 115 107 86 76 85 78 87 85 86 84 76 56 41 37 27 17 27 25 27 340 359 34 149 164 161 121 112 99 104 127 123 108 110 114 109 121 120 118 105 112 107
97 108 135 119 98 79 70 74 76 79 69 69 68 57 57 30 25 19 12 7 14 1 337 5 40 224 221 231 136 150 130 124 120 130 113 112 125 122 119 122 119 113 108
92 124 137 138 110 71 66 66 65 70 65 57 62 65 41 19 20 5 341 339 27 39 42 42 75 260 336 149 147 195 190 181 138 128 142 141 132 124 126 125 117 113 107
73 121 132 141 154 78 69 70 56 52 54 44 45 51 23 11 9 15 20 53 52 50 48 55 54 55 30 215 153 157 190 158 165 171 153 146 139 130 133 124 115 110 106
58 151 131 108 163 55 57 64 51 38 33 25 22 20 29 16 12 25 44 52 63 38 43 50 71 111 75 173 148 137 91 137 171 186 189 155 141 143 137 130 122 109 110
104 222 109 112 149 148 40 46 38 31 11 2 15 28 37 23 28 31 35 40 59 49 52 65 75 98 67 71 175 180 78 109 201 152 179 187 162 158 149 140 129 117 117
96 139 169 119 129 135 20 45 28 13 13 44 50 44 29 28 43 34 37 40 50 54 55 69 73 65 83 71 116 78 92 127 135 116 150 166 167 163 155 147 144 127 122
119 133 136 131 153 144 45 26 11 359 21 57 71 49 39 40 41 39 41 57 51 50 58 60 67 59 57 60 62 79 71 93 175 207 189 165 163 167 161 150 154 151 141
161 157 156 158 154 175 152 49 5 1 38 82 107 40 32 35 30 33 38 56 56 47 56 68 70 70 68 60 81 72 85 85 121 115 152 169 173 170 172 165 171 179 168
191 186 187 189 176 184 182 144 49 35 80 134 188 359 27 31 43 19 19 39 61 53 47 61 74 93 93 61 75 59 75 91 118 173 123 168 179 183 191 195 198 197 183
214 208 219 201 190 184 192 167 129 66 79 139 214 356 23 32 34 30 58 39 35 57 35 46 71 116 135 90 75 51 153 137 160 178 213 199 182 181 205 215 229 236 222
227 211 223 207 192 199 194 183 171 339 142 196 249 349 33 25 25 33 23 26 40 17 30 52 66 107 139 150 102 181 93 212 158 200 208 203 184 189 211 223 230 219 235
249 235 223 227 203 198 201 201 211 246 196 204 255 308 358 17 17 24 9 28 10 17 289 25 65 67 195 159 164 169 171 195 235 218 224 224 210 201 209 218 231 235 233
258 246 259 221 223 208 208 214 217 225 211 169 248 243 322 360 26 9 25 8 5 341 277 140 121 59 196 154 193 192 191 192 211 221 211 241 226 205 213 220 224 232 240
270 236 251 241 210 223 219 212 208 218 197 158 234 260 220 320 15 358 360 7 29 31 140 144 117 72 26 73 149 239 223 239 220 215 222 215 234 240 229 230 234 246 239
244 249 251 234 237 230 213 213 208 209 210 196 222 230 248 294 288 348 309 317 347 34 45 121 140 147 236 199 148 253 260 244 238 209 216 205 229 242 245 253 243 235 244
233 229 242 238 233 231 216 218 206 211 221 212 223 237 244 218 236 257 25 16 12 41 15 39 58 164 49 232 248 326 268 274 262 246 235 212 214 221 246 262 269 262 253
237 245 233 238 228 234 235 223 214 219 229 231 226 248 241 246 225 250 246 263 315 57 347 337 355 74 97 68 205 288 281 262 259 246 250 247 240 239 242 259 262 257 260
252 245 235 239 235 232 240 235 223 229 226 232 225 241 252 250 246 247 255 243 256 258 274 295 316 17 37 75 63 326 311 288 288 278 270 276 279 275 253 248 261 265 266
246 251 239 231 233 234 237 242 233 233 233 230 232 233 243 241 249 243 248 238 232 241 247 266 276 310 4 359 342 340 316 295 283 269 277 293 287 285 277 267 262 265 257
229 240 245 235 229 234 230 233 230 235 236 238 241 243 242 245 239 247 245 238 232 222 237 239 267 290 319 330 302 309 345 279 292 269 249 263 285 273 272 263 255 260 256
258 261 246 237 232 232 228 227 229 232 237 243 251 250 249 246 239 240 254 235 232 226 225 228 237 265 279 286 285 283 300 313 301 270 274 264 254 249 264 250 238 258 253
298 288 275 260 239 228 222 227 225 227 235 241 245 253 257 255 248 245 246 231 229 230 226 233 240 250 271 278 283 291 293 297 302 293 261 284 283 270 270 262 261 253 257
318 304 290 275 241 241 240 223 215 220 226 234 238 244 255 260 277 254 234 225 227 227 229 228 236 247 255 266 271 281 291 286 294 314 320 292 276 248 290 269 258 258 277
Height
5899 5901 5901 5901 5901 5901 5901 5900 5901 5901 5902 5903 5904 5905 5905 5906 5907 5907 5907 5907 5906 5905 5905 5905 5904 5903 5904 5904 5903 5903 5903 5904 5905 5906 5907 5906 5906 5907 5909 5911 5910 5911 5911
5900 5901 5903 5903 5902 5902 5902 5902 5903 5903 5904 5905 5905 5906 5907 5907 5908 5907 5908 5908 5907 5906 5905 5904 5904 5903 5904 5904 5904 5903 5904 5905 5905 5906 5908 5908 5907 5908 5909 5910 5911 5911 5912
5901 5903 5903 5904 5904 5904 5903 5903 5904 5905 5906 5907 5907 5908 5908 5909 5909 5908 5908 5907 5907 5906 5905 5905 5904 5903 5903 5904 5904 5904 5905 5905 5906 5907 5908 5908 5909 5908 5909 5910 5911 5913 5912
5902 5904 5905 5905 5905 5905 5905 5904 5904 5905 5907 5908 5908 5908 5909 5909 5909 5908 5908 5907 5906 5906 5905 5905 5905 5904 5904 5904 5904 5903 5904 5905 5906 5907 5908 5908 5909 5909 5909 5909 5911 5912 5913
5903 5904 5906 5906 5905 5906 5905 5905 5906 5906 5907 5908 5908 5909 5909 5909 5909 5909 5908 5907 5906 5906 5905 5905 5904 5903 5903 5903 5903 5903 5902 5904 5906 5907 5907 5909 5909 5909 5910 5911 5910 5912 5913
5902 5904 5905 5906 5906 5906 5906 5906 5906 5907 5907 5908 5908 5908 5908 5909 5909 5907 5907 5906 5906 5906 5906 5905 5904 5904 5902 5903 5902 5903 5903 5904 5906 5907 5908 5909 5910 5910 5911 5912 5911 5912 5913
5904 5904 5905 5905 5906 5907 5908 5907 5907 5907 5907 5908 5908 5907 5908 5909 5908 5907 5906 5905 5905 5906 5906 5904 5904 5904 5903 5904 5903 5903 5903 5905 5906 5906 5909 5910 5911 5912 5913 5913 5913 5912 5914
5905 5907 5906 5906 5906 5908 5909 5910 5908 5907 5906 5907 5908 5908 5908 5909 5908 5907 5906 5906 5906 5906 5906 5906 5904 5905 5905 5905 5905 5905 5905 5904 5905 5908 5909 5911 5911 5912 5913 5914 5914 5914 5916
5906 5907 5908 5907 5907 5909 5910 5911 5909 5908 5906 5906 5908 5909 5909 5909 5910 5909 5908 5908 5908 5907 5907 5906 5906 5906 5907 5907 5906 5907 5906 5906 5907 5909 5910 5912 5912 5912 5913 5914 5915 5916 5916
5907 5907 5908 5908 5908 5908 5910 5911 5910 5908 5907 5908 5908 5909 5910 5910 5911 5911 5910 5909 5909 5909 5908 5907 5907 5907 5907 5908 5907 5908 5908 5908 5908 5910 5912 5913 5914 5913 5914 5914 5916 5916 5917
5907 5907 5907 5908 5908 5909 5910 5911 5911 5910 5910 5909 5909 5909 5910 5911 5912 5912 5912 5911 5910 5910 5909 5908 5908 5908 5908 5909 5910 5909 5909 5909 5910 5911 5913 5913 5914 5915 5915 5915 5916 5918 5918
5907 5906 5906 5907 5908 5909 5910 5911 5911 5912 5912 5911 5911 5912 5912 5912 5912 5912 5912 5910 5911 5911 5910 5909 5910 5909 5909 5909 5910 5910 5911 5911 5911 5913 5913 5914 5915 5916 5916 5916 5917 5919 5919
5907 5906 5906 5906 5908 5908 5910 5911 5911 5912 5913 5913 5913 5914 5914 5913 5913 5912 5912 5912 5911 5911 5910 5911 5910 5910 5909 5910 5910 5910 5910 5912 5912 5912 5914 5915 5915 5916 5916 5917 5918 5919 5920
5906 5905 5905 5906 5907 5908 5910 5910 5911 5912 5913 5913 5914 5915 5915 5915 5914 5913 5913 5912 5911 5912 5911 5911 5910 5911 5911 5910 5910 5910 5912 5912 5913 5914 5915 5915 5916 5916 5917 5918 5918 5919 5920
5905 5905 5904 5905 5906 5907 5909 5910 5910 5912 5913 5913 5913 5915 5914 5914 5914 5913 5913 5913 5912 5912 5911 5911 5910 5911 5911 5912 5911 5911 5913 5914 5915 5915 5916 5916 5917 5917 5918 5918 5918 5919 5920
5905 5904 5904 5904 5906 5907 5908 5910 5909 5910 5912 5912 5913 5914 5914 5914 5915 5914 5913 5912 5911 5910 5908 5910 5910 5911 5911 5913 5913 5912 5913 5914 5915 5916 5916 5917 5917 5918 5918 5918 5918 5919 5920
5904 5902 5903 5904 5905 5907 5908 5909 5909 5909 5912 5911 5912 5913 5914 5914 5914 5913 5913 5913 5912 5910 5908 5910 5911 5912 5913 5913 5914 5913 5913 5914 5915 5915 5916 5916 5917 5918 5918 5918 5918 5918 5919
5899 5900 5901 5901 5903 5905 5906 5906 5907 5908 5910 5909 5910 5912 5912 5913 5913 5914 5913 5914 5912 5912 5912 5912 5913 5913 5913 5913 5913 5913 5913 5914 5915 5916 5914 5915 5916 5917 5917 5917 5917 5918 5918
5894 5896 5899 5900 5900 5902 5904 5905 5905 5907 5908 5908 5909 5910 5911 5912 5913 5913 5914 5913 5913 5912 5913 5914 5914 5914 5914 5913 5913 5914 5914 5913 5914 5915 5915 5913 5914 5915 5916 5916 5917 5917 5917
5889 5891 5894 5896 5896 5898 5900 5902 5903 5904 5906 5907 5907 5908 5910 5910 5911 5912 5913 5912 5913 5913 5914 5914 5915 5914 5913 5913 5913 5913 5914 5914 5914 5913 5913 5913 5913 5913 5913 5914 5915 5915 5915
5886 5888 5890 5891 5893 5894 5896 5899 5900 5901 5902 5904 5905 5907 5908 5908 5909 5910 5911 5912 5913 5914 5915 5915 5914 5913 5913 5913 5913 5912 5913 5914 5913 5913 5912 5912 5912 5913 5912 5912 5913 5913 5913
5884 5885 5887 5888 5888 5890 5893 5895 5897 5899 5900 5901 5903 5904 5905 5906 5907 5908 5910 5911 5912 5913 5913 5913 5913 5912 5912 5911 5912 5912 5911 5912 5912 5912 5911 5911 5911 5911 5910 5909 5911 5912 5912
5881 5882 5884 5886 5885 5886 5889 5891 5893 5897 5899 5899 5900 5902 5903 5904 5905 5906 5907 5910 5912 5912 5912 5912 5913 5912 5911 5910 5910 5912 5911 5911 5910 5910 5910 5910 5910 5910 5909 5909 5910 5911 5911
5882 5883 5882 5881 5880 5880 5881 5886 5889 5893 5896 5897 5898 5899 5900 5901 5902 5903 5904 5906 5909 5910 5910 5910 5911 5911 5910 5910 5909 5909 5909 5909 5909 5908 5908 5907 5908 5908 5907 5908 5908 5907 5908
5882 5879 5876 5873 5873 5866 5872 5877 5883 5887 5890 5893 5895 5896 5897 5898 5900 5900 5901 5903 5905 5907 5908 5909 5909 5910 5910 5908 5908 5908 5907 5907 5907 5906 5906 5905 5904 5905 5904 5905 5905 5905 5905
5878 5873 5869 5864 5865 5865 5864 5870 5875 5882 5885 5889 5892 5893 5894 5895 5896 5895 5897 5900 5902 5903 5904 5904 5906 5908 5908 5907 5906 5906 5906 5906 5905 5905 5903 5902 5902 5902 5902 5901 5901 5902 5900